Wind_Speed
5 5 5 6 6 7 8 9 10 11 12 12 14 14 15 15 16 17 18 19 19 20 20 20 21 22 22 22 23 23 24 24 25 25 26 27 27 28 29 29 29 30 31
6 6 6 6 7 7 7 8 9 10 12 13 14 15 16 16 17 17 19 20 20 20 21 21 22 23 23 24 24 24 25 26 27 27 28 29 29 30 31 32 32 32 33
7 7 7 8 8 8 8 9 10 11 12 13 14 16 17 17 18 19 20 20 20 21 22 23 23 23 24 25 25 25 26 27 28 29 30 31 31 32 32 33 34 34 35
8 7 8 8 9 9 10 10 10 11 12 13 15 15 17 18 18 19 19 19 21 21 22 23 25 25 25 26 26 27 28 29 30 31 32 32 32 33 33 34 35 36 37
8 8 9 9 10 10 11 11 12 12 13 14 15 16 17 18 19 20 20 21 21 22 23 23 24 25 26 27 27 28 29 29 31 32 32 33 33 34 35 36 37 38 39
11 10 10 11 11 11 12 13 14 14 15 15 16 17 18 19 20 20 21 22 22 23 23 24 25 26 26 27 28 29 29 30 31 32 33 33 34 35 36 37 38 39 39
12 12 12 12 12 13 14 15 16 16 16 16 17 18 19 19 20 22 23 23 23 24 24 25 26 27 27 28 28 29 30 30 32 33 34 34 34 35 37 38 38 38 38
14 13 13 13 14 15 15 16 16 17 17 18 19 19 20 21 22 22 23 24 24 25 25 26 27 27 28 29 29 30 31 32 33 33 34 35 35 36 36 38 39 39 39
15 16 15 15 16 16 17 17 17 18 18 19 20 21 21 22 22 23 24 25 26 26 27 28 28 29 29 30 30 31 32 33 33 33 34 35 36 36 37 38 38 39 40
17 17 17 17 17 18 18 19 19 19 20 20 21 22 23 24 24 25 26 27 27 28 29 30 30 30 31 31 31 32 32 33 33 34 35 36 36 37 38 39 39 40 41
18 18 18 19 19 20 20 20 20 21 22 23 23 24 24 25 26 26 27 28 28 29 29 29 30 30 30 31 32 32 33 34 35 35 36 36 37 38 38 39 39 39 40
20 20 21 21 22 22 22 22 22 23 23 23 24 25 25 26 26 27 28 28 29 29 29 29 29 30 30 31 32 33 34 35 36 36 37 37 38 38 39 39 40 41 41
22 22 23 23 24 24 24 23 23 23 24 25 26 26 27 27 27 28 29 29 29 29 29 29 29 30 31 32 33 34 35 36 36 37 37 38 38 39 40 41 41 41 42
24 24 24 24 25 25 24 24 24 25 26 27 27 27 28 28 29 29 29 29 29 29 29 30 30 31 32 33 34 35 36 36 36 37 37 38 38 39 40 41 41 41 41
25 25 25 25 25 25 25 25 26 26 27 28 28 27 28 28 29 29 29 29 28 29 30 30 31 32 33 34 35 36 35 35 36 37 37 37 38 39 40 40 40 39 39
26 26 26 27 27 27 27 27 27 28 29 30 29 29 29 29 30 29 29 29 30 30 31 32 33 34 34 35 35 35 35 35 36 37 37 37 37 37 38 38 38 38 37
27 27 28 28 28 28 28 29 29 29 29 29 29 29 29 29 29 30 30 31 31 31 32 33 33 34 34 34 34 34 34 34 35 36 36 36 36 37 37 37 37 36 36
27 28 28 29 29 29 28 28 28 28 28 28 28 29 29 29 30 30 30 31 31 31 32 32 33 33 33 33 33 33 34 34 34 35 35 35 35 35 35 35 35 35 35
26 27 27 27 27 27 27 27 28 28 27 27 28 28 28 29 29 30 31 31 31 31 31 31 32 32 32 32 32 33 33 33 33 34 34 34 34 34 34 34 34 34 33
26 25 25 26 26 26 26 26 27 27 27 27 28 28 28 29 30 31 32 32 31 30 30 30 31 31 32 32 33 33 33 33 32 32 32 33 33 33 33 33 32 32 32
25 25 26 26 26 26 26 26 27 27 27 28 28 29 29 29 30 31 31 31 30 30 30 30 31 31 32 32 33 32 32 32 31 31 31 31 32 32 32 31 30 30 30
25 25 25 25 25 26 26 27 27 27 27 27 27 28 29 30 30 30 30 30 30 30 30 30 31 31 32 32 32 32 31 31 31 31 31 31 31 31 30 30 29 29 29
24 24 24 24 25 25 25 25 25 25 26 26 27 27 28 28 28 28 28 29 30 30 30 30 30 31 31 31 31 30 30 30 30 30 30 30 29 29 29 28 28 28 28
23 23 23 24 24 24 23 23 24 24 25 26 26 27 27 27 27 27 27 28 28 29 29 29 30 30 30 30 30 29 29 28 28 29 28 28 27 27 27 26 27 27 27
21 22 22 23 22 22 22 22 23 23 24 24 24 24 25 25 26 26 27 27 28 28 28 28 29 28 28 28 27 27 27 27 27 27 26 26 25 25 25 26 26 26 26
20 20 21 21 21 21 21 22 22 23 22 23 23 24 25 26 26 26 27 27 28 28 28 28 28 28 27 27 26 25 25 25 25 25 25 25 25 25 25 25 25 26 26
Wind_Direction
278 277 275 272 275 275 271 259 253 250 249 249 250 253 256 257 257 260 263 266 266 265 266 266 265 267 269 270 271 272 273 275 278 280 280 280 281 279 280 281 281 281 282
285 282 278 278 276 280 278 267 260 256 253 254 256 259 260 259 259 264 267 268 268 269 270 270 270 271 271 272 273 274 274 276 278 279 279 279 280 280 280 279 280 281 282
285 280 275 273 275 279 280 272 266 263 261 261 260 261 261 262 264 267 270 271 272 274 274 272 273 273 274 275 273 274 275 277 279 280 279 279 279 281 281 281 280 280 282
285 279 274 272 273 274 277 278 278 272 267 267 266 266 267 268 268 270 273 273 273 275 277 275 273 274 276 275 275 276 277 279 280 280 279 279 280 283 283 284 284 282 282
283 276 275 275 275 277 279 278 280 277 272 272 270 268 269 271 273 273 273 274 275 276 278 278 277 277 279 277 277 279 281 282 282 282 281 280 282 283 284 285 285 285 284
285 278 276 274 278 281 281 278 278 277 276 275 273 272 271 270 272 274 276 278 279 280 280 281 282 281 281 279 279 281 283 283 284 284 283 284 286 286 286 285 286 286 285
286 282 281 280 280 281 282 282 280 278 277 276 275 273 273 273 275 277 278 278 280 281 281 281 281 280 281 281 281 282 283 283 285 284 284 286 287 286 287 286 286 287 286
286 282 282 282 283 282 284 285 283 280 277 276 275 274 275 276 278 279 280 280 280 282 283 284 283 282 283 281 283 284 284 285 285 285 286 287 287 287 288 288 287 287 287
288 284 281 282 284 283 283 284 284 282 281 280 278 276 277 279 280 280 282 283 282 283 284 285 284 284 284 284 285 286 286 287 288 289 289 289 289 290 290 291 290 289 288
288 288 285 283 283 283 283 283 284 285 284 282 279 281 281 280 280 280 282 284 283 283 284 285 285 285 285 285 287 288 288 288 290 290 290 289 291 292 293 292 291 290 291
286 287 287 286 284 284 284 284 284 284 284 284 282 282 282 282 282 283 284 285 285 286 286 286 286 286 287 287 287 287 287 288 290 291 292 292 292 293 293 293 291 291 291
285 287 286 286 285 285 284 283 282 283 283 284 284 283 282 282 284 284 285 285 285 286 287 288 288 289 289 289 289 289 290 291 292 293 293 293 294 294 294 293 292 293 293
283 284 284 284 284 283 283 282 281 281 282 282 282 283 283 283 283 284 285 286 287 287 287 289 289 289 290 290 291 291 292 293 293 294 295 295 295 294 294 294 294 295 296
282 282 282 282 282 281 280 281 281 282 282 283 283 283 282 283 284 284 284 285 286 287 288 288 289 290 291 292 293 294 295 296 296 296 297 297 296 296 296 297 298 297 297
280 280 280 280 280 280 280 279 280 280 282 283 284 283 284 284 284 285 284 285 286 288 288 289 291 292 293 294 294 295 296 297 297 298 297 297 297 298 299 300 299 298 298
280 280 280 279 278 278 277 277 278 279 280 282 282 283 284 284 284 285 286 287 287 287 289 291 292 294 295 296 296 296 297 297 298 298 298 299 300 301 302 302 302 301 300
279 279 279 278 277 277 277 278 278 278 280 282 282 282 283 284 286 287 288 289 290 290 292 294 295 296 296 297 298 298 298 299 299 299 299 300 301 302 303 303 303 303 303
278 277 277 278 278 278 278 278 278 281 283 283 283 284 285 287 288 289 290 292 292 292 294 296 296 296 297 297 298 298 299 299 299 299 300 302 304 305 306 306 306 306 305
279 278 277 276 278 278 278 279 280 282 283 284 285 286 287 288 289 290 292 294 295 295 296 297 297 298 298 298 299 299 300 301 300 300 301 303 305 306 307 308 308 307 307
277 276 275 276 278 278 279 280 281 282 283 285 287 287 287 289 290 292 294 296 297 296 296 297 297 298 299 299 300 301 301 301 302 302 302 303 305 307 308 308 309 309 310
275 274 275 276 279 280 280 282 283 283 284 285 286 287 287 290 292 293 295 296 297 297 296 297 297 298 299 300 300 300 300 301 302 302 303 304 305 307 309 309 310 311 311
275 275 276 278 279 281 283 284 284 284 285 286 287 288 289 291 292 293 294 296 297 298 299 299 299 299 301 302 302 301 301 302 302 303 304 306 308 309 310 310 311 312 312
275 277 280 282 283 285 285 285 285 285 286 287 288 289 292 294 295 296 297 298 299 300 300 300 300 300 301 302 302 303 303 303 304 305 306 308 309 311 311 312 313 314 315
277 279 281 283 285 286 286 287 286 288 289 290 292 293 294 296 297 297 298 299 301 302 303 303 304 304 304 304 304 304 304 304 305 306 307 309 310 311 313 314 315 316 316
279 280 282 284 286 286 286 287 288 290 292 295 295 295 297 298 300 301 301 302 303 304 305 306 306 307 307 306 305 304 304 305 306 307 308 310 311 313 315 316 316 317 318
281 282 284 285 285 286 288 289 291 293 295 297 298 299 300 301 302 303 302 303 304 305 306 306 306 306 306 306 306 305 305 306 307 308 309 310 312 313 314 315 317 318 319
Height
5865 5865 5865 5866 5866 5866 5866 5867 5867 5868 5869 5869 5870 5871 5872 5872 5873 5874 5874 5874 5874 5874 5874 5874 5874 5874 5874 5873 5873 5872 5872 5872 5871 5870 5868 5867 5866 5865 5864 5862 5861 5860 5858
5864 5863 5863 5864 5864 5864 5864 5865 5865 5865 5866 5867 5867 5868 5868 5869 5869 5870 5870 5870 5870 5869 5869 5869 5869 5868 5868 5868 5867 5867 5866 5865 5865 5864 5862 5861 5859 5858 5856 5855 5854 5852 5850
5861 5861 5861 5862 5862 5862 5862 5862 5863 5863 5863 5863 5864 5865 5865 5865 5866 5866 5866 5865 5865 5864 5864 5864 5863 5863 5863 5862 5861 5860 5860 5859 5858 5856 5855 5853 5852 5850 5849 5847 5845 5844 5842
5860 5859 5859 5859 5859 5860 5860 5860 5860 5860 5860 5860 5861 5861 5861 5861 5861 5861 5861 5860 5860 5859 5859 5858 5857 5857 5856 5855 5855 5854 5852 5851 5850 5848 5847 5845 5844 5842 5840 5839 5837 5835 5833
5858 5858 5857 5857 5857 5857 5858 5858 5858 5857 5857 5857 5857 5857 5857 5857 5857 5856 5856 5855 5855 5854 5853 5852 5851 5850 5849 5849 5848 5846 5845 5844 5842 5840 5838 5837 5835 5834 5832 5830 5827 5825 5822
5856 5855 5855 5855 5855 5855 5855 5855 5854 5854 5853 5853 5853 5852 5852 5852 5852 5851 5851 5850 5849 5848 5848 5846 5845 5844 5843 5842 5840 5839 5838 5836 5834 5832 5830 5828 5827 5824 5822 5820 5818 5815 5813
5854 5853 5852 5852 5852 5852 5852 5851 5851 5850 5849 5849 5848 5848 5848 5847 5847 5846 5845 5844 5844 5843 5841 5840 5839 5837 5836 5835 5833 5831 5830 5828 5826 5825 5822 5820 5818 5815 5813 5810 5808 5805 5802
5851 5850 5850 5849 5849 5848 5848 5847 5846 5846 5845 5844 5844 5843 5843 5842 5841 5840 5839 5838 5837 5836 5835 5834 5832 5831 5829 5827 5826 5824 5822 5820 5818 5816 5814 5811 5809 5806 5803 5801 5798 5795 5792
5847 5847 5846 5846 5845 5844 5843 5843 5842 5841 5841 5840 5839 5838 5838 5837 5836 5835 5833 5832 5831 5829 5828 5826 5825 5823 5821 5820 5818 5816 5814 5812 5809 5807 5804 5802 5799 5796 5793 5791 5788 5784 5781
5844 5843 5842 5841 5841 5840 5839 5838 5837 5837 5836 5835 5834 5833 5832 5831 5830 5828 5827 5825 5824 5822 5821 5819 5818 5816 5814 5812 5810 5808 5806 5803 5801 5798 5795 5793 5790 5787 5784 5780 5777 5774 5770
5839 5838 5838 5837 5836 5835 5834 5833 5832 5831 5830 5829 5828 5827 5826 5824 5823 5822 5820 5819 5817 5815 5813 5812 5810 5808 5806 5804 5802 5800 5797 5795 5792 5789 5786 5783 5780 5777 5774 5770 5766 5763 5759
5833 5833 5832 5831 5830 5829 5828 5827 5826 5825 5824 5823 5822 5820 5819 5818 5816 5815 5813 5811 5810 5808 5806 5804 5802 5800 5798 5796 5794 5791 5788 5786 5783 5780 5777 5773 5770 5767 5763 5759 5756 5752 5748
5828 5827 5826 5825 5824 5823 5822 5821 5820 5819 5818 5816 5815 5814 5812 5810 5809 5807 5805 5804 5802 5800 5798 5796 5794 5792 5790 5787 5785 5782 5779 5776 5773 5770 5767 5763 5760 5756 5752 5748 5744 5740 5736
5821 5821 5820 5819 5817 5816 5815 5814 5813 5812 5811 5809 5808 5806 5804 5803 5801 5799 5798 5796 5794 5792 5790 5788 5786 5784 5781 5779 5776 5773 5770 5766 5763 5760 5756 5753 5749 5745 5741 5737 5733 5729 5725
5814 5814 5813 5812 5811 5809 5808 5807 5806 5805 5804 5802 5801 5799 5797 5795 5794 5792 5790 5788 5786 5785 5782 5780 5778 5775 5773 5770 5767 5764 5760 5757 5754 5750 5746 5742 5739 5735 5731 5726 5722 5717 5713
5806 5806 5805 5804 5803 5802 5801 5800 5798 5797 5796 5795 5793 5792 5790 5788 5786 5784 5782 5780 5778 5777 5774 5772 5769 5767 5764 5761 5758 5754 5751 5748 5744 5740 5737 5733 5729 5725 5720 5716 5711 5707 5703
5798 5798 5797 5796 5795 5794 5793 5792 5790 5789 5788 5787 5785 5783 5782 5780 5778 5776 5775 5773 5770 5768 5766 5763 5761 5758 5755 5752 5748 5745 5742 5738 5735 5731 5727 5723 5719 5715 5711 5706 5702 5698 5694
5790 5789 5789 5788 5786 5785 5784 5783 5782 5781 5780 5779 5777 5776 5774 5772 5770 5769 5767 5765 5762 5760 5757 5754 5752 5749 5746 5743 5739 5736 5733 5729 5726 5722 5718 5714 5710 5706 5701 5697 5693 5689 5685
5782 5781 5780 5779 5779 5778 5777 5776 5774 5773 5772 5771 5769 5768 5766 5764 5763 5761 5759 5756 5754 5751 5748 5746 5743 5740 5737 5734 5731 5727 5724 5720 5717 5713 5709 5705 5701 5697 5693 5689 5685 5681 5676
5774 5773 5773 5772 5771 5770 5769 5768 5767 5766 5765 5763 5762 5760 5759 5757 5755 5753 5750 5748 5745 5743 5740 5738 5735 5732 5729 5725 5722 5719 5715 5712 5708 5704 5701 5697 5693 5689 5685 5681 5677 5673 5669
5767 5766 5766 5765 5764 5763 5762 5761 5760 5758 5757 5756 5754 5752 5751 5749 5747 5744 5742 5739 5737 5735 5732 5729 5726 5723 5720 5717 5713 5710 5706 5703 5699 5696 5692 5689 5685 5681 5677 5673 5669 5665 5661
5760 5760 5759 5758 5757 5756 5755 5754 5752 5751 5749 5748 5746 5745 5743 5741 5738 5736 5734 5731 5729 5726 5724 5721 5718 5715 5711 5708 5705 5701 5698 5695 5691 5688 5684 5681 5677 5673 5669 5666 5662 5658 5654
5753 5753 5752 5751 5750 5749 5747 5746 5745 5743 5742 5740 5739 5737 5735 5733 5730 5728 5726 5723 5721 5718 5715 5712 5709 5706 5703 5699 5696 5693 5690 5687 5683 5680 5676 5673 5669 5666 5662 5659 5655 5651 5647
5746 5746 5745 5744 5743 5742 5740 5739 5738 5737 5735 5733 5731 5730 5728 5725 5723 5721 5719 5716 5713 5710 5707 5704 5701 5698 5694 5691 5688 5685 5682 5679 5676 5672 5669 5666 5663 5659 5656 5652 5648 5645 5641
5740 5739 5738 5738 5737 5735 5734 5733 5731 5730 5728 5726 5724 5722 5720 5718 5716 5714 5711 5708 5705 5702 5699 5696 5693 5690 5687 5684 5680 5677 5674 5671 5668 5665 5662 5659 5656 5653 5649 5646 5642 5639 5635
5734 5733 5732 5731 5730 5729 5728 5726 5725 5723 5721 5720 5718 5716 5714 5711 5709 5706 5703 5701 5698 5695 5692 5689 5686 5683 5680 5676 5673 5670 5667 5665 5662 5659 5656 5653 5650 5647 5643 5640 5636 5633 5629